Regional Weather Roundup
Issued by NWS

Home | Current Version | Previous Version | Text Only | Print | Product List | Glossary On
Versions: 1 2 3 4 5 6 7 8 9 10 11 12 13 14 15 16 17 18 19 20 21 22 23 24 25 26 27
000
ASUS42 KKEY 191410
RWRKEY

FLORIDA REGIONAL WEATHER ROUNDUP FOR THE FLORIDA KEYS
NATIONAL WEATHER SERVICE KEY WEST FLORIDA
900 AM EST SUN NOV 19 2017

...SOUTH FLORIDA AND THE KEYS...

CITY           SKY/WX    TMP DP  RH WIND       PRES   REMARKS
FORT MYERS     SUNNY     72  65  78 S5        29.97S
SW REGIONAL AP SUNNY     70  65  84 SW5       29.98S
NAPLES         SUNNY     72  64  76 CALM      29.98R
MIAMI          SUNNY     76  61  59 N3        29.99S
WEST KENDALL   SUNNY     73  62  68 N7        29.99R
HOMESTEAD      SUNNY     73  64  73 NW8       29.99R
MARATHON       SUNNY     76  66  71 N8        29.99R
KEY WEST INTL  MOSUNNY   76  67  73 N8        30.00R

...INTERNATIONAL WEATHER...

CITY           SKY/WX    TMP DP  RH WIND       PRES   REMARKS
NASSAU BAHAMAS CLOUDY    75  72  88 E3        29.98R
CANCUN MEXICO  MOSUNNY   72  72 100 NW5       30.00R
COZUMEL MEXICO MOSUNNY   79  73  83 N5        29.97R

ADJACENT COASTAL WATERS...

STATION/POSITION TIME  SKY/WX   TEMP    WIND        PRES    WAVE
                                AIR SEA DIR/SP/G            HT/PER
                 (UTC)          (F)     (DEG/KT/KT) (MB)    (FT/S)
PULASKI SHOAL LI 1400            76      20/  6/  6 1016.0R
SAND KEY         1350            74                 1016.4R
LONG KEY         NOT AVBL
MOLASSES REEF    1400            74 80  360/ 12/ 14 1015.8R
FOWEY ROCKS      1400            74 78  320/  8/  9 1016.1R
Buoy 42097       1330               78                N/A     1

$$




USA.gov is the U.S. government's official web portal to all federal, state and local government web resources and services.